EST,Max TemperatureF,Mean TemperatureF,Min TemperatureF,Max Dew PointF,MeanDew PointF,Min DewpointF,Max Humidity, Mean Humidity, Min Humidity, Max Sea Level PressureIn, Mean Sea Level PressureIn, Min Sea Level PressureIn, Max VisibilityMiles, Mean VisibilityMiles, Min VisibilityMiles, Max Wind SpeedMPH, Mean Wind SpeedMPH, Max Gust SpeedMPH,PrecipitationIn, CloudCover, Events, WindDirDegrees
2013-12-1,61,49,38,39,35,27,85,62,40,30.36,30.18,30.01,10,10,10,7,2,,0.00,3,,225
2013-12-2,60,50,39,51,45,38,97,84,61,30.00,29.90,29.82,10,10,3,8,1,,0.00,7,Rain,233
2013-12-3,55,53,51,55,53,51,100,99,96,29.96,29.90,29.87,4,1,0,5,0,,0.00,8,Fog-Rain,37
2013-12-4,60,57,54,60,58,55,100,100,100,30.07,30.01,29.94,2,1,0,10,0,,0.00,8,Fog-Rain,340
2013-12-5,70,65,60,70,64,60,100,100,97,30.11,30.05,30.02,10,2,0,12,1,17,0.00,8,Fog-Rain,214
2013-12-6,77,70,64,69,67,63,98,87,70,30.07,30.02,29.99,10,9,3,14,8,21,0.00,8,Rain,221
2013-12-7,63,58,52,64,55,46,98,88,71,30.34,30.19,30.03,10,10,2,9,4,17,0.00,6,Rain,134
2013-12-8,51,46,40,47,43,40,99,96,76,30.35,30.30,30.24,10,5,1,12,7,23,0.00,8,Rain,81
2013-12-9,47,44,40,47,44,40,100,99,97,30.25,30.13,30.04,10,5,0,6,2,,0.00,8,Fog-Rain,95
2013-12-10,58,46,32,55,39,24,100,73,35,30.31,30.11,29.93,10,8,0,17,4,31,0.00,3,Fog-Rain,282
2013-12-11,57,42,28,32,25,17,92,58,26,30.44,30.35,30.31,10,10,10,8,3,,0.00,0,,261
2013-12-12,57,45,34,26,20,9,70,45,15,30.39,30.33,30.30,10,10,10,8,4,,0.00,0,,318
2013-12-13,54,42,30,32,22,14,73,49,21,30.36,30.29,30.22,10,10,10,6,3,,0.00,0,,352
2013-12-14,49,46,42,49,42,31,100,86,58,30.22,29.99,29.81,10,5,0,9,2,,0.00,7,Fog-Rain,32
2013-12-15,53,44,36,51,36,30,100,71,45,30.14,29.96,29.78,10,9,2,12,7,20,0.00,2,,285
2013-12-16,63,46,30,33,29,24,94,52,24,30.19,30.15,30.11,10,10,10,14,6,20,0.00,0,,255
2013-12-17,66,51,36,36,32,22,83,49,27,30.18,30.10,30.02,10,10,10,22,7,33,0.00,0,,259
2013-12-18,59,46,34,23,16,6,62,34,12,30.29,30.23,30.12,10,10,10,10,4,16,0.00,0,,266
2013-12-19,65,48,32,31,24,20,72,47,18,30.33,30.27,30.21,10,10,10,7,1,,0.00,0,,215
2013-12-20,60,49,38,48,39,30,81,68,48,30.25,30.20,30.15,10,10,10,5,1,,0.00,5,,347
2013-12-21,60,56,52,60,54,47,100,92,78,30.15,30.07,29.99,10,5,0,4,1,,0.00,8,Fog-Rain,24
2013-12-22,67,63,59,67,61,60,100,100,98,30.08,30.02,29.96,10,2,0,8,1,16,0.00,8,Fog-Rain,9
2013-12-23,62,53,44,60,51,38,100,86,63,30.18,30.10,30.02,10,9,2,9,2,,0.00,3,Rain,274
2013-12-24,48,40,31,38,26,18,87,59,32,30.40,30.29,30.17,10,10,10,15,5,23,0.00,0,,309
2013-12-25,44,34,25,25,20,12,92,62,28,30.51,30.41,30.36,10,10,10,8,2,,0.00,1,,54
2013-12-26,61,44,28,30,25,20,88,55,21,30.36,30.30,30.22,10,10,10,7,1,,0.00,0,,304
2013-12-27,55,43,32,30,26,20,84,60,28,30.48,30.39,30.32,10,10,10,6,2,,0.00,0,,6
2013-12-28,48,39,30,42,33,28,98,78,51,30.40,30.29,30.05,10,9,3,9,2,17,0.00,4,Rain,28
2013-12-29,64,53,42,51,44,38,100,82,49,30.05,29.91,29.83,10,8,1,12,6,20,0.00,3,Rain,273
2013-12-30,55,48,40,44,40,37,92,72,57,30.16,30.07,29.99,10,10,10,10,5,18,0.00,2,,253
2013-12-31,54,46,37,39,29,18,84,57,26,30.35,30.27,30.14,10,10,10,15,4,21,0.00,0,,289